Location: Copper Breaks State Park
(34.1132°N, 99.7492°W)
Time: 17:19:40
(UTC-05:00)

SL-16 R/B - Visible Passes

Search period start: 01 October 2014 00:00
Search period end: 11 October 2014 00:00
Orbit: 985 x 1007 km, 99.2° (Epoch: 01 October)

Date Brightness Start Highest point End Pass type
(mag) Time Alt. Az. Time Alt. Az. Time Alt. Az.
01 Oct 4.9 04:15:42 10° ESE 04:19:37 18° ENE 04:23:32 10° NNE visible
01 Oct 2.4 05:56:35 10° S 06:02:39 63° WSW 06:08:46 10° NNW visible
02 Oct 4.1 04:44:49 10° SE 04:50:09 32° ENE 04:55:30 10° N visible
02 Oct 3.1 06:28:11 10° SSW 06:33:39 33° W 06:39:09 10° NW visible
03 Oct 3.0 05:14:50 10° SSE 05:20:50 59° ENE 05:26:52 10° N visible
03 Oct 3.8 07:00:51 10° SW 07:04:47 18° W 07:08:45 10° NW visible
03 Oct 5.1 19:47:33 10° NNW 19:51:55 20° WNW 19:56:17 10° WSW visible
04 Oct 5.1 04:05:41 10° E 04:08:47 14° ENE 04:11:55 10° NNE visible
04 Oct 2.4 05:45:31 10° S 05:51:39 78° WSW 05:57:50 10° NNW visible
04 Oct 5.7 20:21:04 10° NW 20:22:19 11° WNW 20:23:34 10° WNW visible
05 Oct 4.4 04:34:18 10° ESE 04:39:16 26° ENE 04:44:15 10° NNE visible
05 Oct 2.8 06:16:52 10° SSW 06:22:36 42° W 06:28:24 10° NNW visible
06 Oct 3.4 05:04:04 10° SE 05:09:54 48° ENE 05:15:46 10° N visible
06 Oct 3.5 06:49:05 10° SW 06:53:42 22° W 06:58:22 10° NW visible
06 Oct 5.0 19:36:11 10° NNW 19:41:04 25° WNW 19:45:58 10° WSW visible
07 Oct 5.3 03:56:07 10° ENE 03:57:59 11° ENE 03:59:51 10° NE visible
07 Oct 2.5 05:34:31 10° SSE 05:40:40 87° ENE 05:46:52 10° NNW visible
07 Oct 5.4 20:08:40 10° NNW 20:11:32 14° WNW 20:14:23 10° W visible
08 Oct 4.7 04:23:55 10° ESE 04:28:24 22° ENE 04:32:54 10° NNE visible
08 Oct 2.6 06:05:38 10° S 06:11:35 52° W 06:17:35 10° NNW visible
09 Oct 3.7 04:53:22 10° SE 04:58:59 39° ENE 05:04:38 10° N visible
09 Oct 3.3 06:37:31 10° SSW 06:42:38 28° W 06:47:48 10° NW visible
10 Oct 2.7 05:23:36 10° SSE 05:29:42 71° ENE 05:35:52 10° N visible
10 Oct 4.0 07:10:45 10° WSW 07:13:49 14° W 07:16:54 10° WNW visible
10 Oct 5.2 19:56:57 10° NNW 20:00:43 17° WNW 20:04:29 10° W visible
